Погода в Куладе

Россия / Республика Алтай     50°41′16″N   85°47′11″E
темп.,
°C
ветер,
м/с
пор.,
м/с
влажн.,
%
обл.,
%
осадки,
мм/ч
давл.,
гПа
погр.,
м
23 апреля, пт
пт2301:00−9с2289100 0.4 1037306
04:00−9ссз119399 0.4 1036152
07:00−9ссз1189100 0.6 1037257
10:00−6ссз1170100 0.3 1036827
13:00−3ссв2253100 0.5 10331490
16:00−3с3469100 0.8 10331044
19:00−4с356399 1.4 10341038
22:00−7сз1291100 0.1 103786
24 апреля, сб
сб2401:00−7зсз1293100 0.9 1036249
04:00−7з1195100 0.7 1035180
07:00−7з1291100 1.6 1034272
10:00−5сз2380100 0.7 1033766
13:00−2ссз2363100 1.5 10311199
16:00−2ссз2470100 1.3 1030951
19:00−3с346992 2.4 1031859
22:00−8юз119378 0.2 103610
25 апреля, вс
вс2501:00−10ююз2193100 0.2 103721
04:00−8ююз1188100 0.0 103640
07:00−8юз118546 0.0 103654
10:00−2ссв116261 0.0 1033961
13:00+1ссв1148100 0.2 10301617
16:00+2ссз2246100 0.2 10281713
19:00+1ссз125488 0.3 10291195
22:00−5ю118967 0.1 103313
26 апреля, пн
пн2601:00−6ю1189100 0.1 103317
04:00−6ю1186100 0.0 103217
07:00−4ююв1178100 0.0 103260
10:00+1в0153100 0.0 1029687
13:00+6сз023726 0.0 10261526
16:00+7зюз133426 0.0 10242167
19:00+5юз244981 0.0 1025553
22:00−1ююз24765 0.0 103049
27 апреля, вт
вт2701:00−2ююз2376100 0.0 103049
04:00−2ю2373100 0.0 103038
07:000ю2464100 0.0 102891
10:00+5ю2449100 0.0 1025399
13:00+6юз3657100 0.2 10261216
16:00+5зюз1370100 0.4 1026895
19:00+5ююз2380100 0.5 1026531
22:00+2ююз2389100 0.0 102749